Location: Deep South Regional Star Gaze
(30.9929°N, 90.9586°W)
Time: 22:42:40
(UTC-05:00)

Daily predictions for brighter satellites

Satellite Brightness Start Highest point End
(mag) Time Altitude Azimuth Time Altitude Azimuth Time Altitude Azimuth
OTV 4 1.7 19:52:35 10° NW 19:55:17 31° NNE 19:57:58 10° E
Cosmos 1777 Rocket 4.1 19:50:30 10° N 19:55:44 63° ENE 20:00:57 10° SSE
Cosmos 1536 4.0 19:55:11 10° SSW 19:59:02 48° W 20:02:56 10° N
NOSS 3-4 (A) 4.1 19:52:11 10° NNW 19:59:08 52° ENE 20:06:25 10° SE
NOSS 3-4 (C) 4.1 19:52:19 10° NNW 19:59:15 52° ENE 20:06:31 10° SE
SL-24 R/B - RUBIN 2 4.3 19:54:35 10° SSW 20:00:02 61° ESE 20:06:12 10° NE
Cosmos 1461 3.7 20:00:45 10° N 20:04:19 30° ENE 20:07:47 10° ESE
Cosmos 1821 Rocket 4.0 20:00:03 10° S 20:06:10 87° W 20:12:17 10° N
Cosmos 1605 Rocket 4.1 20:03:13 10° SSE 20:09:22 54° E 20:15:27 10° NNE
CZ-4B DEB 3.4 20:07:55 10° SE 20:10:58 37° ENE 20:14:02 10° N
Spot 2 Rocket 3.6 20:08:40 10° SSE 20:13:46 86° WSW 20:18:52 10° NNW
Cosmos 1697 Rocket 3.1 20:10:04 10° S 20:15:19 41° ESE 20:20:34 10° NE
Cosmos 1025 Rocket 4.0 20:13:15 10° NNW 20:17:27 50° W 20:21:36 10° SSW
METEOR-M 4.2 20:12:34 10° S 20:17:54 83° WSW 20:23:16 10° NNW
Meteor 2-15 4.4 20:15:00 10° N 20:21:04 77° E 20:27:06 10° S
BREEZE-M DEB (TANK) 4.4 20:19:34 10° WSW 20:22:48 51° NNW 20:32:18 10° NE
Iridium 4 Rocket 4.1 20:22:09 10° NNE 20:26:21 29° E 20:29:07 16° SE
Cosmos 1455 Rocket 3.5 20:22:14 10° SSW 20:26:30 65° W 20:30:50 10° N
Cosmos 1626 Rocket 4.2 20:23:34 10° NNE 20:27:35 35° E 20:30:34 16° SE
Meteor 2-15 Rocket 4.4 20:21:37 10° N 20:27:40 73° E 20:33:42 10° SSE
Cosmos 1892 Rocket 4.1 20:24:27 10° NNW 20:28:54 65° W 20:33:18 10° S
Cosmos 1602 Rocket 3.8 20:33:07 10° N 20:37:25 47° E 20:40:24 18° SSE
H-2A R/B 2.8 20:35:07 14° SSE 20:38:17 60° ENE 20:42:10 10° N
Cosmos 1980 Rocket 2.6 20:33:40 10° S 20:38:49 38° ESE 20:44:03 10° NE
Resurs 1-3 4.3 20:35:36 10° S 20:39:53 54° W 20:44:11 10° NNW
Cosmos 220 Rocket 4.3 20:37:16 10° N 20:41:19 44° ENE 20:43:07 27° SE
Lacrosse 5 3.5 20:39:25 10° N 20:43:04 20° NE 20:44:53 16° ENE
Cosmos 2123 Rocket 4.0 20:39:16 10° N 20:45:26 82° W 20:51:37 10° S
Cosmos 1975 2.9 20:42:37 10° S 20:46:43 81° W 20:50:50 10° N
Cosmos 1459 Rocket 4.3 20:42:44 10° SSE 20:48:20 41° E 20:53:59 10° NNE
ERS-1 Rocket 3.8 20:48:21 27° E 20:49:38 31° ENE 20:54:01 10° N
EO 1 Delta rocket 4.4 20:46:18 10° N 20:51:10 70° W 20:57:04 10° SSW
Cosmos 2150 Rocket 4.5 20:50:16 10° N 20:55:07 40° ENE 20:56:30 33° ESE
FENGYUN 3A 3.8 20:50:37 10° S 20:55:57 75° WSW 21:01:19 10° NNW
Lacrosse 5 rocket 0.9 20:53:45 10° NNW 20:57:24 70° NE 20:57:58 56° ESE
Cosmos 1656 4.5 20:53:29 10° SW 20:58:58 54° WNW 21:04:26 10° N
CZ-2D R/B 3.8 20:57:27 14° S 21:00:42 57° W 21:04:31 10° NNW
Cosmos 1763 Rocket 3.6 20:56:36 10° S 21:01:27 45° ESE 21:06:18 10° NNE
Delta 2 Rocket 4.1 20:56:21 10° WNW 21:02:01 67° SSW 21:03:59 38° SE
Resurs 01 Rocket 4.2 21:01:09 10° SW 21:04:27 20° W 21:07:46 10° NW
Fermi 4.4 21:01:02 10° WSW 21:04:50 38° S 21:04:54 38° S
CZ-4 DEB 4.2 21:07:23 27° NNE 21:07:23 27° NNE 21:09:05 10° N
Cosmos 1500 3.4 21:04:10 10° SSW 21:07:53 67° W 21:11:39 10° N
Hubble Space Telescope 2.8 21:07:29 10° WSW 21:10:06 16° SSW 21:10:37 16° SSW
Cosmos 1898 Rocket 3.5 21:06:02 10° N 21:11:16 64° ENE 21:12:34 47° SE
DELTA 2 R/B (1) 3.8 21:05:51 10° WNW 21:11:20 58° NNE 21:13:06 40° ENE
Cosmos 2322 Rocket 4.4 21:16:55 10° NE 21:16:55 10° NE 21:16:57 10° NE
Cosmos 2227 Rocket 3.0 21:08:45 10° NNW 21:14:09 48° WSW 21:18:41 15° S
OAO 2 Rocket 3.8 21:16:38 10° WNW 21:21:34 54° N 21:22:50 43° NE
ALOS 4.0 21:19:40 10° SSW 21:23:46 31° W 21:27:54 10° NW
Cosmos 1939 Rocket 3.5 21:25:01 46° NNE 21:25:01 46° NNE 21:28:12 10° N
USA 186 3.8 21:23:38 22° WSW 21:24:23 24° W 21:26:54 10° NW
Cosmos 841 Rocket 3.3 21:23:27 48° S 21:24:51 70° ESE 21:30:03 10° NNE
Cosmos 2360 4.0 21:20:50 10° SSW 21:26:30 75° ESE 21:32:13 10° NNE
Cosmos 1802 Rocket 3.9 21:21:57 20° S 21:26:31 79° E 21:32:57 10° N
Meteor 1-21 4.5 21:23:35 10° N 21:29:03 50° ENE 21:29:03 50° ENE
Cosmos 2297 Rocket 2.9 21:23:48 10° NNW 21:29:15 51° WSW 21:32:06 27° SSW
OTV 4 3.0 21:28:49 10° WNW 21:30:01 21° W 21:30:01 21° W
Cosmos 972 Rocket 4.5 21:29:50 10° NNW 21:36:04 83° ENE 21:37:45 54° SSE
Cosmos 2016 Rocket 3.8 21:34:59 50° S 21:36:41 79° E 21:42:52 10° N
ASTEX 1 4.4 21:42:33 10° NNE 21:45:35 37° NNE 21:45:35 37° NNE
Cosmos 1743 4.2 21:48:13 36° WNW 21:48:13 36° WNW 21:51:27 10° NNW
Cosmos 1825 Rocket 4.5 21:43:48 10° N 21:46:51 44° NNW 21:46:51 44° NNW
Tiangong 1 4.5 21:50:36 10° NNW 21:50:47 11° NNW 21:50:47 11° NNW
H-2A R/B 3.8 21:57:54 25° N 21:57:54 25° N 21:59:42 10° NNW
RESURS DK-1 4.0 21:53:11 10° NNW 21:55:34 33° NW 21:55:34 33° NW
Envisat 3.6 22:03:38 54° WNW 22:03:38 54° WNW 22:08:05 10° NNW
SL-16 R/B 4.0 22:13:10 21° NNE 22:13:10 21° NNE 22:15:00 10° NNE
Cosmos 1980 Rocket 4.3 22:18:27 10° WSW 22:22:53 23° WNW 22:27:21 10° N
H-2A R/B 4.5 22:27:29 12° NNE 22:27:29 12° NNE 22:27:58 10° N
Lacrosse 5 3.5 22:21:22 10° NW 22:24:05 31° WNW 22:24:05 31° WNW
CZ-3C R/B 4.0 22:23:12 10° W 22:38:31 28° SW 22:38:31 28° SW
Cosmos 2263 Rocket 4.4 22:49:19 10° N 22:50:51 19° N 22:50:51 19° N
Cosmos 2322 Rocket 4.2 22:58:39 23° NNW 22:58:39 23° NNW 23:01:11 10° N
Milstar 3 Cent rocket 4.2 22:56:25 10° W 23:10:48 52° SW 23:10:48 52° SW
